Check out our new BloomSky Weather System.

Active alerts


No alerts


Thunder radar  blitzortung!


Rain radar more information rain snow radar


Visit our other weather sites:

Template documentation
and downloads

And another site



Weather Underground History page Text

Daily Summary for February 7, 2017 Units:  Metric    English   Both
« Previous Day
Next Day »
Daily Weekly Monthly Yearly Custom
  High: Low: Average:
Temperature: 30.1 °C 19.3 °C 23.9 °C
Dew Point: 21.3 °C 13.6 °C 18.2 °C
Humidity: 94 % 39 % 73 %
Wind Speed: 24.1 km/h 0 km/h 5 km/h
Wind Gust: 27.4 km/h - -
Wind:- - SSW
Pressure: 1010.7 hPa 1006.3 hPa -
Precipitation: 0 mm    
Historical Graphs
 
 
Tabular Data for February 7, 2017
Time Temperature Dew Point Pressure Wind Wind Speed Wind Gust Humidity Rainfall Rate (Hourly)
00:01 21.8 °C 19.9 °C 1010.4 hPa SSE 8 km/h 20.9 km/h 89 % 0 mm
00:07 21.8 °C 19.9 °C 1010.4 hPa SSE 9.7 km/h 20.9 km/h 89 % 0 mm
00:12 21.7 °C 19.8 °C 1010.4 hPa SE 11.3 km/h 24.1 km/h 89 % 0 mm
00:17 21.7 °C 19.8 °C 1010.4 hPa SSE 8 km/h 24.1 km/h 89 % 0 mm
00:22 21.7 °C 19.8 °C 1010.4 hPa SSE 14.5 km/h 24.1 km/h 89 % 0 mm
00:27 21.7 °C 19.8 °C 1010.4 hPa ESE 9.7 km/h 20.9 km/h 89 % 0 mm
00:32 21.6 °C 19.7 °C 1010 hPa SE 12.9 km/h 22.5 km/h 89 % 0 mm
00:37 21.6 °C 19.9 °C 1010 hPa South 8 km/h 22.5 km/h 90 % 0 mm
00:42 21.5 °C 19.8 °C 1010 hPa South 12.9 km/h 22.5 km/h 90 % 0 mm
00:47 21.6 °C 19.9 °C 1010 hPa SSE 6.4 km/h 17.7 km/h 90 % 0 mm
00:52 21.6 °C 19.9 °C 1010 hPa South 17.7 km/h 25.7 km/h 90 % 0 mm
00:57 21.6 °C 19.9 °C 1010 hPa South 9.7 km/h 25.7 km/h 90 % 0 mm
01:02 21.6 °C 19.7 °C 1010 hPa East 4.8 km/h 25.7 km/h 89 % 0 mm
01:07 21.6 °C 19.7 °C 1010.4 hPa SSE 4.8 km/h 20.9 km/h 89 % 0 mm
01:12 21.6 °C 19.7 °C 1010 hPa South 3.2 km/h 20.9 km/h 89 % 0 mm
01:17 21.7 °C 19.8 °C 1010 hPa SSW 9.7 km/h 19.3 km/h 89 % 0 mm
01:22 21.7 °C 19.8 °C 1010 hPa SSE 11.3 km/h 19.3 km/h 89 % 0 mm
01:27 21.7 °C 19.8 °C 1010 hPa SW 6.4 km/h 19.3 km/h 89 % 0 mm
01:32 21.7 °C 19.8 °C 1010 hPa SSE 8 km/h 17.7 km/h 89 % 0 mm
01:37 21.7 °C 19.8 °C 1010 hPa SE 8 km/h 19.3 km/h 89 % 0 mm
01:42 21.7 °C 19.8 °C 1009.7 hPa SSE 6.4 km/h 19.3 km/h 89 % 0 mm
01:47 21.8 °C 19.9 °C 1009.7 hPa SSE 24.1 km/h 24.1 km/h 89 % 0 mm
01:52 21.8 °C 19.9 °C 1009.7 hPa SW 6.4 km/h 24.1 km/h 89 % 0 mm
01:57 21.8 °C 19.9 °C 1009.7 hPa SSW 9.7 km/h 24.1 km/h 89 % 0 mm
02:02 21.8 °C 19.7 °C 1009.7 hPa South 16.1 km/h 24.1 km/h 88 % 0 mm
02:07 21.8 °C 19.7 °C 1009.7 hPa SSW 8 km/h 24.1 km/h 88 % 0 mm
02:12 21.8 °C 19.7 °C 1009.7 hPa South 3.2 km/h 24.1 km/h 88 % 0 mm
02:17 21.8 °C 19.9 °C 1009.7 hPa SSE 8 km/h 24.1 km/h 89 % 0 mm
02:22 21.8 °C 19.9 °C 1009.7 hPa SW 9.7 km/h 22.5 km/h 89 % 0 mm
02:27 21.8 °C 19.9 °C 1010 hPa SSE 8 km/h 22.5 km/h 89 % 0 mm
02:32 21.8 °C 19.9 °C 1009.7 hPa South 4.8 km/h 22.5 km/h 89 % 0 mm
02:37 21.8 °C 19.9 °C 1009.7 hPa SSW 6.4 km/h 22.5 km/h 89 % 0 mm
02:42 21.8 °C 19.9 °C 1009.7 hPa SW 11.3 km/h 14.5 km/h 89 % 0 mm
02:47 21.8 °C 19.9 °C 1009.7 hPa SSW 6.4 km/h 17.7 km/h 89 % 0 mm
02:52 21.8 °C 19.9 °C 1009.7 hPa SE 6.4 km/h 20.9 km/h 89 % 0 mm
02:57 21.8 °C 20.1 °C 1009.4 hPa South 11.3 km/h 20.9 km/h 90 % 0 mm
03:02 21.8 °C 20.1 °C 1009.4 hPa SW 9.7 km/h 22.5 km/h 90 % 0 mm
03:07 21.7 °C 20 °C 1009.4 hPa SSE 11.3 km/h 22.5 km/h 90 % 0 mm
03:13 21.7 °C 20 °C 1009.4 hPa South 12.9 km/h 22.5 km/h 90 % 0 mm
03:18 21.7 °C 20 °C 1009.4 hPa SE 6.4 km/h 19.3 km/h 90 % 0 mm
03:23 21.7 °C 20 °C 1009.4 hPa SSE 6.4 km/h 17.7 km/h 90 % 0 mm
03:28 21.7 °C 20 °C 1009.4 hPa South 8 km/h 17.7 km/h 90 % 0 mm
03:33 21.7 °C 20 °C 1009.4 hPa SW 14.5 km/h 19.3 km/h 90 % 0 mm
03:38 21.7 °C 20 °C 1009.4 hPa South 4.8 km/h 19.3 km/h 90 % 0 mm
03:43 21.7 °C 20 °C 1009.4 hPa SSE 6.4 km/h 19.3 km/h 90 % 0 mm
03:48 21.7 °C 20 °C 1009.4 hPa South 4.8 km/h 19.3 km/h 90 % 0 mm
03:53 21.7 °C 20 °C 1009.4 hPa SSE 4.8 km/h 19.3 km/h 90 % 0 mm
03:58 21.7 °C 20 °C 1009.4 hPa SSE 3.2 km/h 14.5 km/h 90 % 0 mm
04:03 21.7 °C 20 °C 1009.4 hPa SW 3.2 km/h 14.5 km/h 90 % 0 mm
04:08 21.7 °C 20 °C 1009 hPa SSW 4.8 km/h 14.5 km/h 90 % 0 mm
04:13 21.8 °C 20.1 °C 1009 hPa South 8 km/h 14.5 km/h 90 % 0 mm
04:18 21.7 °C 20 °C 1009 hPa SSE 6.4 km/h 14.5 km/h 90 % 0 mm
04:23 21.8 °C 20.1 °C 1008.7 hPa South 16.1 km/h 17.7 km/h 90 % 0 mm
04:28 21.8 °C 20.1 °C 1008.7 hPa SSW 4.8 km/h 17.7 km/h 90 % 0 mm
04:33 21.8 °C 20.1 °C 1008.7 hPa SSW 3.2 km/h 17.7 km/h 90 % 0 mm
04:38 21.8 °C 20.1 °C 1008.7 hPa SSW 6.4 km/h 17.7 km/h 90 % 0 mm
04:43 21.8 °C 20.1 °C 1008.7 hPa SSW 8 km/h 17.7 km/h 90 % 0 mm
04:48 21.8 °C 20.1 °C 1008.7 hPa SSE 6.4 km/h 19.3 km/h 90 % 0 mm
04:53 21.8 °C 19.9 °C 1008.7 hPa SW 12.9 km/h 19.3 km/h 89 % 0 mm
04:58 21.9 °C 20 °C 1008.7 hPa SSW 12.9 km/h 19.3 km/h 89 % 0 mm
05:03 21.9 °C 20 °C 1008.7 hPa SSE 4.8 km/h 19.3 km/h 89 % 0 mm
05:08 21.9 °C 20 °C 1008.7 hPa SSW 9.7 km/h 19.3 km/h 89 % 0 mm
05:14 21.9 °C 20 °C 1008.7 hPa SSW 8 km/h 16.1 km/h 89 % 0 mm
05:19 21.9 °C 20 °C 1009 hPa SSW 4.8 km/h 14.5 km/h 89 % 0 mm
05:24 21.9 °C 20 °C 1009 hPa SSW 3.2 km/h 14.5 km/h 89 % 0 mm
05:29 21.9 °C 20 °C 1009 hPa SSE 1.6 km/h 16.1 km/h 89 % 0 mm
05:34 21.9 °C 20 °C 1008.7 hPa SW 8 km/h 17.7 km/h 89 % 0 mm
05:39 22 °C 20.1 °C 1009 hPa South 16.1 km/h 24.1 km/h 89 % 0 mm
05:44 22 °C 20.1 °C 1009 hPa SSW 8 km/h 24.1 km/h 89 % 0 mm
05:49 22.1 °C 20.2 °C 1009 hPa SSW 6.4 km/h 24.1 km/h 89 % 0 mm
05:54 22 °C 20.1 °C 1009 hPa South 4.8 km/h 24.1 km/h 89 % 0 mm
05:59 22 °C 20.1 °C 1009 hPa SSW 8 km/h 19.3 km/h 89 % 0 mm
06:04 22.1 °C 20.2 °C 1009 hPa SSW 6.4 km/h 20.9 km/h 89 % 0 mm
06:09 22 °C 20.1 °C 1009 hPa SSE 6.4 km/h 20.9 km/h 89 % 0 mm
06:14 22.1 °C 20.2 °C 1009 hPa SW 6.4 km/h 20.9 km/h 89 % 0 mm
06:19 22.1 °C 20.2 °C 1009.4 hPa SSW 4.8 km/h 22.5 km/h 89 % 0 mm
06:24 22.1 °C 20.2 °C 1009.4 hPa SW 4.8 km/h 22.5 km/h 89 % 0 mm
06:29 22.1 °C 20.2 °C 1009.4 hPa WSW 4.8 km/h 22.5 km/h 89 % 0 mm
06:34 22.1 °C 20.2 °C 1009.4 hPa SW 11.3 km/h 19.3 km/h 89 % 0 mm
06:39 22.2 °C 20.3 °C 1009 hPa South 8 km/h 27.4 km/h 89 % 0 mm
06:44 22.2 °C 20.1 °C 1009 hPa SSE 11.3 km/h 27.4 km/h 88 % 0 mm
06:49 22.2 °C 20.1 °C 1009 hPa SW 11.3 km/h 27.4 km/h 88 % 0 mm
06:54 22.2 °C 20.3 °C 1009 hPa SW 11.3 km/h 20.9 km/h 89 % 0 mm
06:59 22.2 °C 20.3 °C 1009 hPa SW 3.2 km/h 20.9 km/h 89 % 0 mm
07:04 22.1 °C 20.2 °C 1009 hPa SSE 11.3 km/h 19.3 km/h 89 % 0 mm
07:09 22.1 °C 20.2 °C 1009.4 hPa SW 16.1 km/h 17.7 km/h 89 % 0 mm
07:14 22.1 °C 20.2 °C 1009.4 hPa WSW 4.8 km/h 17.7 km/h 89 % 0 mm
07:19 22.1 °C 20.2 °C 1009.4 hPa West 3.2 km/h 22.5 km/h 89 % 0 mm
07:24 22.1 °C 20.2 °C 1009.4 hPa SW 8 km/h 22.5 km/h 89 % 0 mm
07:30 22.1 °C 20.2 °C 1009.4 hPa SW 3.2 km/h 25.7 km/h 89 % 0 mm
07:35 22.1 °C 20.2 °C 1009.4 hPa SW 8 km/h 25.7 km/h 89 % 0 mm
07:40 22 °C 20.1 °C 1009.4 hPa SE 14.5 km/h 25.7 km/h 89 % 0 mm
07:45 22 °C 20.1 °C 1009.4 hPa SW 11.3 km/h 19.3 km/h 89 % 0 mm
07:50 22 °C 20.1 °C 1009.4 hPa WSW 9.7 km/h 19.3 km/h 89 % 0 mm
07:51 21.9 °C 20 °C 1009.4 hPa East 1.6 km/h 19.3 km/h 89 % 0 mm
07:56 21.9 °C 20 °C 1009.7 hPa SSW 3.2 km/h 16.1 km/h 89 % 0 mm
08:01 22 °C 20.1 °C 1009.7 hPa SW 3.2 km/h 16.1 km/h 89 % 0 mm
08:06 22 °C 20.1 °C 1010 hPa SSW 3.2 km/h 14.5 km/h 89 % 0 mm
08:11 22.1 °C 20.2 °C 1010 hPa SSW 6.4 km/h 14.5 km/h 89 % 0 mm
08:16 22.1 °C 20.2 °C 1009.7 hPa WSW 3.2 km/h 14.5 km/h 89 % 0 mm
08:21 22.1 °C 20.2 °C 1010 hPa SSW 4.8 km/h 14.5 km/h 89 % 0 mm
08:26 22.1 °C 20.2 °C 1010 hPa SW 6.4 km/h 16.1 km/h 89 % 0 mm
08:32 22.2 °C 20.3 °C 1010 hPa South 4.8 km/h 19.3 km/h 89 % 0 mm
08:37 22.2 °C 20.3 °C 1010 hPa SSW 4.8 km/h 19.3 km/h 89 % 0 mm
08:42 22.3 °C 20.2 °C 1010 hPa SW 6.4 km/h 19.3 km/h 88 % 0 mm
08:47 22.4 °C 20.5 °C 1010.4 hPa South 4.8 km/h 19.3 km/h 89 % 0 mm
08:48 22.4 °C 20.3 °C 1010.4 hPa SSE 3.2 km/h 19.3 km/h 88 % 0 mm
08:53 22.4 °C 20.3 °C 1010.4 hPa SSW 12.9 km/h 17.7 km/h 88 % 0 mm
08:58 22.7 °C 20.6 °C 1010.4 hPa WSW 4.8 km/h 17.7 km/h 88 % 0 mm
09:03 22.8 °C 20.5 °C 1010.4 hPa South 8 km/h 17.7 km/h 87 % 0 mm
09:06 22.9 °C 20.8 °C 1010.4 hPa SW 4.8 km/h 17.7 km/h 88 % 0 mm
09:11 23.2 °C 20.7 °C 1010.4 hPa South 8 km/h 12.9 km/h 86 % 0 mm
09:16 23.2 °C 20.5 °C 1010.4 hPa SSW 6.4 km/h 12.9 km/h 85 % 0 mm
09:21 23.2 °C 20.5 °C 1010.4 hPa WSW 4.8 km/h 12.9 km/h 85 % 0 mm
09:26 23.3 °C 20.6 °C 1010.4 hPa West 1.6 km/h 16.1 km/h 85 % 0 mm
09:32 23.6 °C 20.7 °C 1010.4 hPa NW 3.2 km/h 16.1 km/h 84 % 0 mm
09:37 23.8 °C 20.9 °C 1010.4 hPa WSW 4.8 km/h 17.7 km/h 84 % 0 mm
09:42 23.8 °C 20.7 °C 1010.4 hPa SW 4.8 km/h 17.7 km/h 83 % 0 mm
09:47 23.9 °C 20.8 °C 1010.4 hPa SW 6.4 km/h 17.7 km/h 83 % 0 mm
09:52 23.9 °C 20.6 °C 1010.7 hPa SW 9.7 km/h 16.1 km/h 82 % 0 mm
09:57 24.1 °C 20.8 °C 1010.4 hPa South 6.4 km/h 20.9 km/h 82 % 0 mm
10:02 24.6 °C 21.3 °C 1010.7 hPa South 4.8 km/h 20.9 km/h 82 % 0 mm
10:07 24.8 °C 20.9 °C 1010.7 hPa SW 3.2 km/h 20.9 km/h 79 % 0 mm
10:12 24.9 °C 21 °C 1010.4 hPa SW 3.2 km/h 17.7 km/h 79 % 0 mm
10:17 25.1 °C 21 °C 1010.7 hPa SSW 6.4 km/h 17.7 km/h 78 % 0 mm
10:22 25.1 °C 20.8 °C 1010.7 hPa WNW 9.7 km/h 20.9 km/h 77 % 0 mm
10:27 25.2 °C 20.9 °C 1010.4 hPa SSW 8 km/h 22.5 km/h 77 % 0 mm
10:32 25.3 °C 21 °C 1010 hPa SSW 16.1 km/h 22.5 km/h 77 % 0 mm
10:37 25.3 °C 21 °C 1010 hPa South 3.2 km/h 22.5 km/h 77 % 0 mm
10:42 25.6 °C 20.8 °C 1010 hPa WNW 6.4 km/h 22.5 km/h 75 % 0 mm
10:47 25.8 °C 20.8 °C 1010 hPa WSW 9.7 km/h 20.9 km/h 74 % 0 mm
10:52 25.8 °C 21 °C 1010 hPa SW 14.5 km/h 20.9 km/h 75 % 0 mm
10:57 25.9 °C 21.1 °C 1010 hPa South 6.4 km/h 24.1 km/h 75 % 0 mm
11:02 26.2 °C 20.7 °C 1010 hPa SW 11.3 km/h 24.1 km/h 72 % 0 mm
11:07 26.7 °C 20.8 °C 1010 hPa SW 11.3 km/h 24.1 km/h 70 % 0 mm
11:12 26.8 °C 20.4 °C 1010 hPa South 9.7 km/h 19.3 km/h 68 % 0 mm
11:17 26.7 °C 20.5 °C 1010 hPa SSW 9.7 km/h 19.3 km/h 69 % 0 mm
11:22 26.5 °C 20.6 °C 1010 hPa SSW 11.3 km/h 19.3 km/h 70 % 0 mm
11:27 26.8 °C 20.4 °C 1010 hPa SSE 6.4 km/h 24.1 km/h 68 % 0 mm
11:32 26.9 °C 20.5 °C 1009.7 hPa SW 16.1 km/h 24.1 km/h 68 % 0 mm
11:37 27 °C 20.6 °C 1010 hPa NW 6.4 km/h 24.1 km/h 68 % 0 mm
11:42 27.3 °C 20.4 °C 1009.7 hPa SSW 4.8 km/h 22.5 km/h 66 % 0 mm
11:47 27.4 °C 20.7 °C 1009.7 hPa SW 4.8 km/h 22.5 km/h 67 % 0 mm
11:52 27.7 °C 20.3 °C 1009.4 hPa SW 6.4 km/h 19.3 km/h 64 % 0 mm
11:57 27.8 °C 20.1 °C 1009.4 hPa SW 4.8 km/h 16.1 km/h 63 % 0 mm
12:02 27.8 °C 20.4 °C 1009.4 hPa WNW 4.8 km/h 24.1 km/h 64 % 0 mm
12:07 27.8 °C 20.1 °C 1009.4 hPa SE 4.8 km/h 24.1 km/h 63 % 0 mm
12:12 27.9 °C 20.5 °C 1009.4 hPa South 4.8 km/h 24.1 km/h 64 % 0 mm
12:17 28.3 °C 19.5 °C 1009 hPa South 8 km/h 19.3 km/h 59 % 0 mm
12:22 28.3 °C 19.2 °C 1009 hPa West 4.8 km/h 19.3 km/h 58 % 0 mm
12:27 28.4 °C 18.2 °C 1009 hPa SW 9.7 km/h 19.3 km/h 54 % 0 mm
12:32 28.7 °C 19.3 °C 1009 hPa West 1.6 km/h 19.3 km/h 57 % 0 mm
12:37 28.8 °C 18.3 °C 1008.7 hPa NW 6.4 km/h 12.9 km/h 53 % 0 mm
12:42 28.8 °C 18.3 °C 1008.7 hPa NW 3.2 km/h 11.3 km/h 53 % 0 mm
12:47 29.1 °C 18.2 °C 1008.7 hPa WSW 3.2 km/h 11.3 km/h 52 % 0 mm
12:52 29.3 °C 18.1 °C 1008.4 hPa South 3.2 km/h 14.5 km/h 51 % 0 mm
12:57 29.1 °C 17.9 °C 1008.4 hPa South 8 km/h 14.5 km/h 51 % 0 mm
13:02 29.1 °C 17.6 °C 1008.4 hPa SW 3.2 km/h 16.1 km/h 50 % 0 mm
13:07 29.2 °C 17.1 °C 1008.4 hPa West 3.2 km/h 19.3 km/h 48 % 0 mm
13:12 29.3 °C 17.5 °C 1008 hPa SSW 6.4 km/h 19.3 km/h 49 % 0 mm
13:17 29.4 °C 18.2 °C 1008 hPa West 6.4 km/h 19.3 km/h 51 % 0 mm
13:22 29.7 °C 17.2 °C 1008 hPa WSW 6.4 km/h 14.5 km/h 47 % 0 mm
13:27 29.7 °C 16.5 °C 1008 hPa Calm   14.5 km/h 45 % 0 mm
13:32 29.4 °C 16.2 °C 1007.7 hPa North 4.8 km/h 17.7 km/h 45 % 0 mm
13:37 29.2 °C 16.4 °C 1007.7 hPa WSW 4.8 km/h 17.7 km/h 46 % 0 mm
13:42 29.3 °C 15.8 °C 1007.7 hPa West 6.4 km/h 17.7 km/h 44 % 0 mm
13:47 29.3 °C 15.4 °C 1007.7 hPa WNW 6.4 km/h 14.5 km/h 43 % 0 mm
13:52 29.4 °C 16.6 °C 1007.7 hPa SW 8 km/h 17.7 km/h 46 % 0 mm
13:57 29.5 °C 16.7 °C 1007.3 hPa SW 3.2 km/h 17.7 km/h 46 % 0 mm
14:02 29.8 °C 16.2 °C 1007.3 hPa WNW 3.2 km/h 17.7 km/h 44 % 0 mm
14:07 29.9 °C 15.6 °C 1007.3 hPa WNW 8 km/h 12.9 km/h 42 % 0 mm
14:12 29.9 °C 16 °C 1007.3 hPa SW 6.4 km/h 12.9 km/h 43 % 0 mm
14:17 30.1 °C 15.4 °C 1007.3 hPa WSW 3.2 km/h 12.9 km/h 41 % 0 mm
14:22 29.8 °C 14.7 °C 1007.3 hPa SE 3.2 km/h 12.9 km/h 40 % 0 mm
14:27 29.7 °C 15 °C 1007.3 hPa SW 1.6 km/h 14.5 km/h 41 % 0 mm
14:32 29.6 °C 15.3 °C 1007 hPa WNW 3.2 km/h 14.5 km/h 42 % 0 mm
14:37 29.6 °C 15.7 °C 1007.3 hPa WSW 4.8 km/h 14.5 km/h 43 % 0 mm
14:42 29.7 °C 15.8 °C 1007.3 hPa West 6.4 km/h 11.3 km/h 43 % 0 mm
14:48 29.8 °C 15.5 °C 1007.3 hPa SW 1.6 km/h 11.3 km/h 42 % 0 mm
14:53 29.8 °C 15.5 °C 1007 hPa WNW 1.6 km/h 11.3 km/h 42 % 0 mm
14:58 29.9 °C 15.6 °C 1007 hPa West 8 km/h 9.7 km/h 42 % 0 mm
15:03 29.7 °C 14.3 °C 1007 hPa WNW 3.2 km/h 11.3 km/h 39 % 0 mm
15:08 29.7 °C 14.7 °C 1007 hPa WSW 3.2 km/h 11.3 km/h 40 % 0 mm
15:13 29.8 °C 14.7 °C 1007 hPa South 3.2 km/h 12.9 km/h 40 % 0 mm
15:18 29.9 °C 14.8 °C 1007 hPa SW 3.2 km/h 12.9 km/h 40 % 0 mm
15:23 29.8 °C 14.4 °C 1007 hPa SW 6.4 km/h 12.9 km/h 39 % 0 mm
15:28 29.6 °C 14.6 °C 1007 hPa West 4.8 km/h 11.3 km/h 40 % 0 mm
15:33 29.4 °C 14.8 °C 1007 hPa West 1.6 km/h 9.7 km/h 41 % 0 mm
15:38 29.3 °C 14.7 °C 1006.7 hPa NW 1.6 km/h 9.7 km/h 41 % 0 mm
15:43 29.3 °C 15.1 °C 1006.7 hPa SW 3.2 km/h 8 km/h 42 % 0 mm
15:48 29.3 °C 14.3 °C 1006.7 hPa WNW 3.2 km/h 8 km/h 40 % 0 mm
15:53 29.3 °C 14.3 °C 1006.7 hPa West 3.2 km/h 9.7 km/h 40 % 0 mm
15:58 29.3 °C 14.7 °C 1006.7 hPa SW 1.6 km/h 9.7 km/h 41 % 0 mm
16:03 29.2 °C 14.6 °C 1006.7 hPa WSW 1.6 km/h 9.7 km/h 41 % 0 mm
16:08 29.2 °C 15.3 °C 1006.7 hPa SW 4.8 km/h 6.4 km/h 43 % 0 mm
16:13 29.1 °C 14.1 °C 1006.7 hPa SW 3.2 km/h 12.9 km/h 40 % 0 mm
16:18 28.9 °C 13.6 °C 1006.7 hPa Calm   12.9 km/h 39 % 0 mm
16:23 28.8 °C 13.9 °C 1006.7 hPa SSW 3.2 km/h 12.9 km/h 40 % 0 mm
16:28 28.8 °C 14.6 °C 1006.3 hPa West 1.6 km/h 9.7 km/h 42 % 0 mm
16:33 28.8 °C 14.2 °C 1006.3 hPa WSW 1.6 km/h 9.7 km/h 41 % 0 mm
16:39 28.9 °C 13.9 °C 1006.3 hPa SW 1.6 km/h 9.7 km/h 40 % 0 mm
16:44 28.9 °C 14.3 °C 1006.3 hPa SSW 1.6 km/h 6.4 km/h 41 % 0 mm
16:49 28.9 °C 14.7 °C 1006.3 hPa SSW 3.2 km/h 6.4 km/h 42 % 0 mm
16:54 28.8 °C 14.6 °C 1006.3 hPa South 1.6 km/h 6.4 km/h 42 % 0 mm
16:59 28.7 °C 14.1 °C 1006.3 hPa SW 1.6 km/h 6.4 km/h 41 % 0 mm
17:04 28.7 °C 14.9 °C 1006.3 hPa Calm   6.4 km/h 43 % 0 mm
17:09 28.6 °C 14.8 °C 1006.3 hPa Calm   6.4 km/h 43 % 0 mm
17:14 28.4 °C 14.6 °C 1006.3 hPa WSW 1.6 km/h 4.8 km/h 43 % 0 mm
17:19 28.3 °C 14.5 °C 1006.3 hPa Calm   4.8 km/h 43 % 0 mm
17:24 28.2 °C 14.8 °C 1006.3 hPa Calm   4.8 km/h 44 % 0 mm
17:29 28 °C 14.6 °C 1006.3 hPa Calm   4.8 km/h 44 % 0 mm
17:34 27.7 °C 14.7 °C 1006.3 hPa Calm   3.2 km/h 45 % 0 mm
17:39 27.4 °C 14.8 °C 1006.3 hPa Calm   1.6 km/h 46 % 0 mm
17:44 27.1 °C 14.8 °C 1006.3 hPa Calm   1.6 km/h 47 % 0 mm
17:49 26.7 °C 14.8 °C 1006.3 hPa Calm   1.6 km/h 48 % 0 mm
17:54 26.3 °C 14.7 °C 1006.3 hPa Calm   1.6 km/h 49 % 0 mm
17:59 25.9 °C 14.7 °C 1006.3 hPa Calm   1.6 km/h 50 % 0 mm
18:04 25.6 °C 14.7 °C 1006.3 hPa Calm   1.6 km/h 51 % 0 mm
18:09 25.3 °C 14.4 °C 1006.3 hPa Calm   1.6 km/h 51 % 0 mm
18:14 24.9 °C 14.4 °C 1006.3 hPa Calm   1.6 km/h 52 % 0 mm
18:19 24.5 °C 14.3 °C 1006.3 hPa Calm     53 % 0 mm
18:24 24.1 °C 14.5 °C 1006.3 hPa Calm     55 % 0 mm
18:29 23.8 °C 14.5 °C 1006.3 hPa Calm     56 % 0 mm
18:35 23.6 °C 14.9 °C 1006.3 hPa Calm     58 % 0 mm
18:40 23.3 °C 14.6 °C 1006.3 hPa Calm     58 % 0 mm
18:45 23.2 °C 14.7 °C 1006.3 hPa Calm     59 % 0 mm
18:50 22.9 °C 14.7 °C 1006.3 hPa Calm     60 % 0 mm
18:55 22.7 °C 14.5 °C 1006.7 hPa Calm     60 % 0 mm
19:00 22.3 °C 14.4 °C 1006.7 hPa Calm     61 % 0 mm
19:05 22 °C 14.4 °C 1006.7 hPa Calm     62 % 0 mm
19:10 21.8 °C 14.7 °C 1006.7 hPa Calm     64 % 0 mm
19:15 21.7 °C 14.8 °C 1006.7 hPa Calm     65 % 0 mm
19:20 21.7 °C 14.8 °C 1006.7 hPa Calm     65 % 0 mm
19:25 21.6 °C 14.7 °C 1006.7 hPa Calm     65 % 0 mm
19:30 21.3 °C 14.7 °C 1006.7 hPa Calm     66 % 0 mm
19:35 21.1 °C 14.5 °C 1006.7 hPa Calm     66 % 0 mm
19:40 20.8 °C 14.4 °C 1006.7 hPa Calm     67 % 0 mm
19:45 20.8 °C 14.9 °C 1006.7 hPa Calm     69 % 0 mm
19:50 20.8 °C 14.7 °C 1006.7 hPa Calm     68 % 0 mm
19:55 20.6 °C 14.7 °C 1006.7 hPa Calm     69 % 0 mm
20:00 20.5 °C 14.6 °C 1006.7 hPa Calm     69 % 0 mm
20:05 20.4 °C 14.7 °C 1006.7 hPa Calm     70 % 0 mm
20:10 20.5 °C 15.1 °C 1007 hPa Calm     71 % 0 mm
20:15 20.7 °C 15 °C 1007 hPa Calm   1.6 km/h 70 % 0 mm
20:20 20.7 °C 15 °C 1007 hPa Calm   1.6 km/h 70 % 0 mm
20:25 20.7 °C 15 °C 1007 hPa Calm   1.6 km/h 70 % 0 mm
20:30 20.5 °C 14.8 °C 1007 hPa Calm     70 % 0 mm
20:35 20.2 °C 14.6 °C 1007 hPa Calm     70 % 0 mm
20:40 19.8 °C 14.2 °C 1007 hPa Calm     70 % 0 mm
20:45 19.4 °C 14.2 °C 1007.3 hPa Calm     72 % 0 mm
20:50 19.3 °C 14.5 °C 1007.3 hPa SSW 1.6 km/h   74 % 0 mm
20:55 19.4 °C 14.9 °C 1007.3 hPa SSE 3.2 km/h 4.8 km/h 75 % 0 mm
21:01 19.8 °C 15 °C 1007.3 hPa South 4.8 km/h 4.8 km/h 74 % 0 mm
21:06 20.3 °C 15.5 °C 1007.3 hPa SSW 1.6 km/h 6.4 km/h 74 % 0 mm
21:11 20.7 °C 15.9 °C 1007.7 hPa SSW 1.6 km/h 6.4 km/h 74 % 0 mm
21:16 20.9 °C 16.3 °C 1007.7 hPa Calm   6.4 km/h 75 % 0 mm
21:21 20.9 °C 16.3 °C 1007.7 hPa Calm   4.8 km/h 75 % 0 mm
21:26 20.9 °C 16.3 °C 1007.7 hPa South 1.6 km/h 4.8 km/h 75 % 0 mm
21:31 20.9 °C 16.5 °C 1008 hPa Calm   1.6 km/h 76 % 0 mm
21:36 20.8 °C 16.4 °C 1007.7 hPa Calm   1.6 km/h 76 % 0 mm
21:41 20.8 °C 16.6 °C 1008 hPa Calm   1.6 km/h 77 % 0 mm
21:46 20.9 °C 17.3 °C 1008 hPa South 1.6 km/h 3.2 km/h 80 % 0 mm
21:51 21 °C 17.6 °C 1008 hPa Calm   3.2 km/h 81 % 0 mm
21:56 20.9 °C 17.7 °C 1008 hPa SSW 1.6 km/h 3.2 km/h 82 % 0 mm
22:01 20.8 °C 17.6 °C 1008 hPa SSW 1.6 km/h 4.8 km/h 82 % 0 mm
22:06 20.8 °C 18 °C 1008 hPa South 1.6 km/h 4.8 km/h 84 % 0 mm
22:11 20.9 °C 18.5 °C 1007.7 hPa SSW 1.6 km/h 4.8 km/h 86 % 0 mm
22:16 20.9 °C 18.7 °C 1007.7 hPa SSE 1.6 km/h 4.8 km/h 87 % 0 mm
22:21 20.9 °C 18.8 °C 1008 hPa South 4.8 km/h 6.4 km/h 88 % 0 mm
22:26 20.9 °C 19 °C 1008 hPa South 3.2 km/h 8 km/h 89 % 0 mm
22:31 21 °C 19.3 °C 1008 hPa SSW 1.6 km/h 8 km/h 90 % 0 mm
22:36 21 °C 19.3 °C 1008 hPa SSE 1.6 km/h 8 km/h 90 % 0 mm
22:41 21 °C 19.5 °C 1008 hPa SSW 3.2 km/h 9.7 km/h 91 % 0 mm
22:46 21 °C 19.5 °C 1008 hPa SW 3.2 km/h 9.7 km/h 91 % 0 mm
22:51 21 °C 19.5 °C 1008 hPa SSW 1.6 km/h 9.7 km/h 91 % 0 mm
22:56 20.9 °C 19.4 °C 1008 hPa SSW 6.4 km/h 6.4 km/h 91 % 0 mm
23:01 20.9 °C 19.4 °C 1008 hPa WNW 4.8 km/h 8 km/h 91 % 0 mm
23:06 20.9 °C 19.6 °C 1008 hPa SSW 3.2 km/h 9.7 km/h 92 % 0 mm
23:12 20.8 °C 19.5 °C 1008 hPa SSW 4.8 km/h 9.7 km/h 92 % 0 mm
23:17 20.7 °C 19.4 °C 1008 hPa SW 1.6 km/h 9.7 km/h 92 % 0 mm
23:22 20.7 °C 19.4 °C 1008 hPa SSW 1.6 km/h 9.7 km/h 92 % 0 mm
23:27 20.6 °C 19.4 °C 1008 hPa SSW 4.8 km/h 9.7 km/h 93 % 0 mm
23:32 20.4 °C 19.2 °C 1007.7 hPa SW 4.8 km/h 9.7 km/h 93 % 0 mm
23:37 20.4 °C 19.2 °C 1007.7 hPa SW 4.8 km/h 6.4 km/h 93 % 0 mm
23:41 20.4 °C 19.2 °C 1007.7 hPa Calm   12.9 km/h 93 % 0 mm
23:46 20.3 °C 19.1 °C 1007.7 hPa South 1.6 km/h 12.9 km/h 93 % 0 mm
23:51 20.2 °C 19.2 °C 1007.7 hPa SSW 1.6 km/h 12.9 km/h 94 % 0 mm
23:57 20.2 °C 19.2 °C 1007.7 hPa SSE 1.6 km/h 4.8 km/h 94 % 0 mm
Spring, Texas: Villages of Bridgestone
Compliments of Weather Underground - 2.75 mb

Script developed by  Jim McMurry - jmcmurry@mwt.net Adapted for the template by  Wim van der Kuil - Leuven-Template.eu

You find our weather info also at:

UK Metoffice

WeatherCloud

Weather Underground

Mid-South Weather Network

AWEKAS

Citizen Weather Observer Program (CWOP)

HAMweather, WeatherForYou, PWS Weather

Equipment we use:

Weather-station
Davis Vantage Vue

Weather-program
Meteohub

Weather-server
Debian 7.9 x86 (Guest)

Provider
DreamHost

Davis Vantage Vue

Meteohub

Debian 7.9 x86 (Guest)

DreamHost